Find Local Weather

World > North America > United States > California

Pioneertown, California Regional Weather

Lat: 34.16N, Lon: 116.5W
Wx Zone: CAZ060
Warning FLW WEATHER ALERT - HIGH WIND WARNING (More Info. Click Here) Warning
Feedback
Expires:201901211400;;698117
ASUS46 KLOX 211313
RWRCA 

SOUTHERN CALIFORNIA WEATHER ROUNDUP
NATIONAL WEATHER SERVICE OXNARD CALIFORNIA
500 AM PST MON JAN 21 2019

NOTE: "FAIR" INDICATES FEW OR NO CLOUDS BELOW 12,000 FEET WITH NO 
SIGNIFICANT WEATHER AND/OR OBSTRUCTIONS TO VISIBILITY.

  -  STATIONS PRECEEDED BY AN ASTERISK (*) ARE NOT NWS OR FAA 
     STATIONS AND ARE NOT SUBJECT TO NWS AND FAA QUALITY CONTROL.


CAZ028-029-059-060-099-211400-
ANTELOPE VALLEY AND SURROUNDING AREAS

  
CITY           SKY/WX    TMP DP  RH WIND       PRES   REMARKS
LANCASTER      CLEAR     40  32  73 SW15      30.05R WCI  32          
PALMDALE       CLEAR     41  31  67 W23       30.05R WCI  31          
*POPPY PARK      N/A     39  33  80 W7G49       N/A  WCI  34          

CITY           SKY/WX    TMP DP  RH WIND       PRES   REMARKS
29 PALMS       LGT RAIN  50  30  46 NW39G51   29.95R                  
BARSTOW/DAGGET PTCLDY    46  34  62 W36G45    29.93R                  
BISHOP         PTCLDY    34  21  59 N12       29.80R WCI  25          
CHINA LAKE     CLEAR     43  28  55 SW29G35   29.88F WCI  33          
EDWARDS AFB    PTCLDY    42  32  68 W16       30.01S WCI  34          
MOJAVE         CLOUDY    39  32  75 W24G31    29.99F WCI  28          
NEEDLES        CLEAR     53  41  63 SW8       29.83R                  

$$


SKY/WX - Weather  TMP - Temperature  DP - Dew Point  RH - Relative Humidity
WIND - Wind Direction/Speed PRES - Barometric Pressure